Regional Weather Roundup
Issued by NWS

Home | Current Version | Previous Version | Graphics & Text | Print | Product List | Glossary On
Versions: 1 2 3 4 5 6 7 8 9 10 11 12 13 14 15 16 17 18 19 20 21 22 23 24 25 26 27 28 29 30 31 32 33 34 35 36 37 38 39 40 41 42 43 44 45 46 47 48 49 50
000
ASUS45 KTFX 301710
RWRMT
MONTANA REGIONAL WEATHER ROUNDUP
NATIONAL WEATHER SERVICE GREAT FALLS MT
1100 AM MDT SAT APR 30 2016

NOTE: "FAIR" INDICATES FEW OR NO CLOUDS BELOW 12000 FEET WITH NO
SIGNIFICANT WEATHER AND/OR OBSTRUCTIONS TO VISIBILITY.

MTZ001>007-043-301800-
WEST OF THE DIVIDE

CITY           SKY/WX    TMP DP  RH WIND       PRES   REMARKS
KALISPELL      SUNNY     53  36  52 E3        30.19S
MISSOULA       CLOUDY    45  40  82 W6        30.22R
BUTTE          CLOUDY    40  33  76 S3        30.15S
MULLAN PASS    PTSUNNY   38  33  82 VRB3      30.19R
ANACONDA         N/A     43  36  75 N8        30.16R
DEER LODGE       N/A     45  36  70 NW7       30.19R
EUREKA           N/A     54  37  54 NE5       30.22F
HAMILTON         N/A     43  37  81 N7        30.19R
LIBBY            N/A     54  37  54 CALM      30.21F
PLAINS           N/A     48  42  80 CALM      30.21R
$$

MTZ008-052>055-301800-
SOUTHWEST MONTANA

CITY           SKY/WX    TMP DP  RH WIND       PRES   REMARKS
BOZEMAN        CLOUDY    46  35  65 NW8       30.15R
DILLON         CLOUDY    45  32  60 NE18      30.10S
ENNIS          PTSUNNY   43  34  70 N20G25    30.15S
THREE FORKS      N/A     45  45 100 CALM      30.13R
TWIN BRIDGES     N/A     48  30  50 N21       30.08R
$$

MTZ009-010-012-014-046-048-049-054-301800-
EAST SLOPES AND CENTRAL MONTANA

CITY           SKY/WX    TMP DP  RH WIND       PRES   REMARKS
CUT BANK       CLOUDY    47  36  65 E6        30.24R
GREAT FALLS    CLOUDY    48  37  65 VRB5      30.20R
MALMSTROM AFB  CLOUDY    47  38  69 NW3       30.22R
HELENA         PTSUNNY   49  34  56 VRB5      30.17S
CHOTEAU          N/A     45  39  81 VRB5      30.23S
CONRAD           N/A     48  44  86 NE8       30.23R
$$

MTZ011-013-016-021-045-047-050-051-301800-
NORTH CENTRAL MONTANA

CITY           SKY/WX    TMP DP  RH WIND       PRES   REMARKS
HAVRE          CLOUDY    53  40  61 E10       30.25R
LEWISTOWN      CLOUDY    48  34  58 E15G23    30.21R
N BAR RANCH    CLOUDY    43  34  70 VRB6      30.23S
CHINOOK          N/A     48  41  76 E6        30.26R
$$

MTZ017>020-022>027-061-062-301800-
NORTHEAST MONTANA

CITY           SKY/WX    TMP DP  RH WIND       PRES   REMARKS
GLASGOW        SUNNY     56  32  40 E13       30.26R
JORDAN           N/A     54  36  50 E9        30.22R
SIDNEY         SUNNY     57  30  35 NE15G23   30.26S
WOLF POINT     SUNNY     58  33  39 E12G21    30.27S
PLENTYWOOD       N/A     57  27  30 E17       30.28F
POPLAR           N/A     55  28  35 E18G24    30.27S
SCOBEY           N/A     57  28  33 NE12      30.26S
$$

MTZ028>42-056>058-301800-
SOUTHCENTRAL AND SOUTHEAST MONTANA

CITY           SKY/WX    TMP DP  RH WIND       PRES   REMARKS
BAKER          MOSUNNY   53  33  46 E16G25    30.19S
BILLINGS       CLOUDY    48  35  60 E12       30.18R
LIVINGSTON     CLOUDY    44  34  67 E16G23    30.14S
MILES CITY     CLOUDY    54  35  48 NE12      30.20R
FORSYTH          N/A     54  30  40 E12G18    30.19S
LAUREL           N/A     47  30  51 NE7       30.15R
ROUNDUP          N/A     50  34  54 NE9       30.10S
$$

REGIONAL REPORTS...DAKOTAS

CITY           SKY/WX    TMP DP  RH WIND       PRES   REMARKS
WILLISTON      SUNNY     59  28  30 E13G25    30.27S
MINOT          SUNNY     61  28  28 NE17G25   30.26F
DICKINSON      MOSUNNY   54  32  43 NE17G25   30.18S
BEACH            N/A     54  32  43 E20       30.24S
CROSBY           N/A     57  28  33 E13G21    30.32F
WATFORD CITY     N/A     57  27  30 E18G25    30.25F
BISMARCK       CLOUDY    56  35  45 E14       30.21R
GRAND FORKS    MOSUNNY   58  29  33 E17G31    30.25F
FARGO          SUNNY     59  31  34 NE23G30   30.17F
BUFFALO SD       N/A     50  35  56 NE15      30.09R
RAPID CITY     CLOUDY    45  36  70 NE17      30.09S
$$

REGIONAL REPORTS...WYOMING/IDAHO/WASHINGTON

CITY           SKY/WX    TMP DP  RH WIND       PRES   REMARKS
GILLETTE       PTSUNNY   43  36  76 NE18      30.12S
SHERIDAN       CLOUDY    42  36  79 CALM      30.18R
BUFFALO WY       N/A    N/A N/A N/A MISG      30.16R
CODY           CLOUDY    41  32  70 NW8       30.11S
YELLOWSTONE LA   N/A     36  22  56 VRB5      30.09R
IDAHO FALLS    CLOUDY    51  33  50 NE12      30.03S
SALMON         CLOUDY    48  34  57 N6        30.11S
BOISE          SUNNY     58  38  47 NW21      30.05F
SPOKANE        PTSUNNY   50  44  80 CALM      30.22R
$$

REGIONAL REPORTS...ALBERTA

CITY           SKY/WX    TMP DP  RH WIND       PRES   REMARKS
EDMONTON       SUNNY     59  36  41 S9        30.22R
CALGARY        PTSUNNY   48  32  53 CALM      30.26R
LETHBRIDGE     PTSUNNY   52  37  58 VRB5      30.24R
MEDICINE HAT   CLOUDY    55  39  54 S6        30.26R
WATERTON GATE    N/A     52  34  50 NE8         N/A
CARDSTON         N/A     50  36  57 S1          N/A
MILK RIVER       N/A     52  37  58 SE6         N/A
ONEFOUR          N/A     52  37  58 SE12        N/A
$$

REGIONAL REPORTS...SASKATCHEWAN

CITY           SKY/WX    TMP DP  RH WIND       PRES   REMARKS
SWIFT CURRENT  SUNNY     57  27  30 SE12G23   30.28R
REGINA         MOSUNNY   59  25  27 SE13G18   30.34S
SASKATOON      MOSUNNY   61  27  27 SE13      30.33F
CYPRESS HILLS    N/A     50  30  46 SE9         N/A
VAL MARIE        N/A     57  32  38 SE10        N/A
ROCKGLEN         N/A     55  28  35 E9G17       N/A
$$



USA.gov is the U.S. government's official web portal to all federal, state and local government web resources and services.